Regional Weather Roundup
Issued by NWS Memphis, TN

Home | Current Version | Previous Version | Text Only | Print | Product List | Glossary On
Versions: 1 2 3 4 5 6 7 8 9 10 11 12 13 14 15 16 17 18 19 20 21 22 23 24 25 26 27 28 29 30 31 32 33 34 35 36 37 38 39 40 41 42 43 44 45 46 47 48 49 50
000
ASUS44 KMEG 190510
RWRMEG
MEMPHIS CWA HOURLY WEATHER ROUNDUP
NATIONAL WEATHER SERVICE MEMPHIS TN
1200 AM CDT THU OCT 19 2017

...WEST TENNESSEE...

CITY           SKY/WX    TMP DP  RH WIND       PRES   REMARKS
MEMPHIS INTL   CLEAR     60  47  61 S7        30.18F
NWS MEMPHIS      N/A     55 N/A N/A MISG        N/A
JACKSON        CLEAR     46  45  96 CALM      30.21S
COVINGTON      CLEAR     46  45  93 CALM      30.21R
SOMERVILLE     CLEAR     54  48  82 SE5       30.18F
BOLIVAR        CLEAR     48  46  93 SE3       30.19F
LEXINGTON      CLEAR     48  46  93 CALM      30.21S
SELMER         CLEAR     59  46  63 S8        30.20F
SAVANNAH       CLEAR     48  46  93 S5        30.21F
UNION CITY     CLEAR     50  45  81 CALM      30.19S
HUNTINGDON     CLEAR     48  46  93 CALM      30.21S


...EASTERN ARKANSAS...

CITY           SKY/WX    TMP DP  RH WIND       PRES   REMARKS
JONESBORO      CLEAR     55  48  77 S5        30.17F
WEST MEMPHIS   CLEAR     53  49  86 S5        30.18S
BATESVILLE     CLEAR     64  48  56 VRB7      30.16F
NEWPORT        CLEAR     52  47  83 S6        30.17S
WALNUT RIDGE   CLEAR     54  47  77 S6        30.16F
BLYTHEVILLE    CLEAR     56  50  80 S9        30.19F
SEARCY         CLEAR     50  50 100 CALM      30.18
STUTTGART      CLEAR     56  50  80 SE6       30.17F
PINE BLUFF     CLEAR     51  49  92 CALM      30.18F
MONTICELLO     CLEAR     56  49  77 S5        30.19S


...NORTH MISSISSIPPI...

CITY           SKY/WX    TMP DP  RH WIND       PRES   REMARKS
TUPELO         CLEAR     49  46  90 CALM      30.22F
OXFORD         CLEAR     54  45  71 SE5       30.22F
BATESVILLE     CLEAR     46  44  94 CALM      30.21F
TUNICA           N/A    N/A N/A N/A CALM      30.20S
CLARKSDALE       N/A     55  50  82 SE5       30.19F
CORINTH        CLEAR     46  45  93 CALM      30.21F
GREENWOOD      CLEAR     60  46  59 SE9       30.20F
COLUMBUS       CLEAR     47  47  99 CALM      30.22F
STARKVILLE     CLEAR     46  45  93 CALM      30.25S
GOLDEN TRIANGL CLEAR     50  47  89 CALM      30.23F


...SOUTHEAST MISSOURI...

CITY           SKY/WX    TMP DP  RH WIND       PRES   REMARKS
KENNETT        PTCLDY    54  50  87 CALM      30.17S
MALDEN         PTCLDY    55  46  71 S7        30.19S
WEST PLAINS    CLEAR     60  48  64 S8        30.16S
POPLAR BLUFF   CLEAR     52  48  86 CALM      30.17S
CAPE GIRARDEAU PTCLDY    54  46  74 S7        30.17S


...NORTHWEST ALABAMA...

CITY           SKY/WX    TMP DP  RH WIND       PRES   REMARKS
MUSCLE SHOALS  CLEAR     47  43  86 CALM      30.25F


...MIDDLE TENNESSEE...

CITY           SKY/WX    TMP DP  RH WIND       PRES   REMARKS
NASHVILLE      CLEAR     50  44  80 S6        30.23F
CLARKSVILLE    CLEAR     49  45  86 CALM      30.22R
COLUMBIA       CLEAR     45  45 100 CALM      30.22S


...WESTERN KENTUCKY...

CITY           SKY/WX    TMP DP  RH WIND       PRES   REMARKS
PADUCAH        PTCLDY    58  45  62 S5        30.18S
FORT CAMPBELL  CLEAR     55  45  69 S5        30.21S


...CENTRAL ARKANSAS...

CITY           SKY/WX    TMP DP  RH WIND       PRES   REMARKS
LITTLE ROCK    PTCLDY    55  52  89 S8        30.17F


SKY/WX REPORTED AS FAIR MEANS FEW OR NO CLOUDS BELOW
12 THOUSAND FEET.





USA.gov is the U.S. government's official web portal to all federal, state and local government web resources and services.